TIME,DELAY(SENSOR),PRES,T(CTD),SAL,OXYGEN,RAWTEMP,T(OPTODE),TCPHASE,TURBIDITY,TURBIDITY_GAIN,FLUOR,BETA,CDOM,ED411.5,ED443.8,ED489.6,PAR,COMP,TILT,TILTY(TILT),CHECK
1341895750,6467,245.6699981689453000,4.9127998352050780,34.9863014221191400,350.0266113281250000,761.4805908203125000,4.8844490051269530,34.1029701232910160,16,3,48,103,64,2147243880,2147559785,2147569659,2147365892,906,0,-12,9551
1341895811,6469,242.7299957275390600,4.9130001068115230,34.9858016967773440,350.0313110351562500,761.4724121093750000,4.8847332000732420,34.1025581359863300,16,3,48,102,64,2147241613,2147559153,2147571245,2147364278,600,0,-12,14744
1341895872,6468,239.7599945068359400,4.9126000404357910,34.9860000610351560,350.0638122558594000,761.4714965820312000,4.8847661018371580,34.1012496948242200,16,3,49,102,63,2147245641,2147559610,2147567067,2147362344,186,0,-12,59129
1341895936,6467,236.6199951171875000,4.9121999740600590,34.9860992431640600,349.9938049316406000,761.4716186523438000,4.8847618103027340,34.1038093566894500,16,3,49,102,64,2147242801,2147562601,2147567615,2147363972,3317,0,-12,43817
1341895997,6468,233.5899963378906200,4.9121999740600590,34.9859008789062500,350.0375976562500000,761.4774169921875000,4.8845620155334470,34.1025810241699200,15,3,48,104,64,2147244433,2147556941,2147567981,2147362934,2931,0,-12,6269
1341896059,6467,230.5299987792968800,4.9113001823425290,34.9866981506347660,350.0723876953125000,761.4827270507812000,4.8843770027160645,34.1012992858886700,16,3,49,103,64,2147244607,2147555926,2147570335,2147362203,2635,0,-12,30522
1341896120,6468,227.5200042724609400,4.9116997718811035,34.9858016967773440,350.0971069335937500,761.4868774414062000,4.8842282295227050,34.1005897521972660,16,3,48,102,64,2147248278,2147561928,2147568950,2147363579,2404,0,-11,2840
1341896181,6466,224.5599975585937500,4.9116001129150390,34.9859008789062500,350.1253967285156000,761.4927978515625000,4.8840222358703610,34.0996589660644500,16,3,49,104,63,2147242582,2147560484,2147570120,2147365051,2149,0,-12,14555
1341896242,6466,221.6399993896484400,4.9110999107360840,34.9863014221191400,350.1090087890625000,761.4970703125000000,4.8838691711425780,34.1004905700683600,16,3,48,109,64,2147246299,2147560918,2147569754,2147364735,1928,0,-12,47360
1341896334,6467,216.5000000000000000,4.9107999801635740,34.9860992431640600,350.2869873046875000,761.5247192382812000,4.8829040527343750,34.0948486328125000,16,3,50,106,64,2147246747,2147561375,2147570847,2147364799,1634,0,-12,5453
1341896396,6468,212.2899932861328000,4.9106001853942870,34.9860992431640600,350.2326049804687500,761.5311279296875000,4.8826770782470700,34.0966911315918000,16,3,50,108,64,2147242463,2147561201,2147567309,2147364744,1400,0,-12,25777
1341896484,6467,206.8500061035156200,4.9098000526428220,34.9866981506347660,350.2586975097656000,761.5407714843750000,4.8823390007019040,34.0962104797363300,16,3,48,105,63,2147241352,2147559267,2147571514,2147363542,1125,0,-12,15074
1341896545,6468,203.7899932861328000,4.9102001190185550,34.9860992431640600,350.2258911132812500,761.5385742187500000,4.8824200630187990,34.0972290039062500,16,3,49,108,64,2147242486,2147558924,2147568671,2147361553,882,0,-12,36376
1341896609,6469,200.6499938964843800,4.9102001190185550,34.9859008789062500,350.1662902832031000,761.5396728515625000,4.8823781013488770,34.0992012023925800,16,3,50,107,64,2147244168,2147563035,2147569540,2147361467,602,0,-12,11418
1341896670,6468,197.6900024414062500,4.9100999832153320,34.9858016967773440,350.1000976562500000,761.5402832031250000,4.8823590278625490,34.1016807556152340,14,3,50,107,65,2147240059,2147563007,2147570166,2147364333,319,0,-12,29906
1341896734,6468,194.5899963378906200,4.9098000526428220,34.9859008789062500,350.1676940917969000,761.5458984375000000,4.8821620941162110,34.0992889404296900,16,3,50,107,64,2147244557,2147560671,2147573046,2147360657,3544,0,-12,47026
1341896795,6469,191.6499938964843800,4.9091000556945800,34.9864997863769500,350.1514892578125000,761.5501098632812000,4.8820128440856930,34.0999603271484400,16,3,48,107,64,2147245275,2147559130,2147570280,2147364100,3152,0,-12,43603
1341896859,6466,188.6199951171875000,4.9088001251220700,34.9865989685058600,350.1997070312500000,761.5557861328125000,4.8818149566650390,34.0987205505371100,16,3,48,106,65,2147243939,2147559935,2147569023,2147360680,2781,0,-12,39795
1341896920,6467,185.7400054931640600,4.9091000556945800,34.9860992431640600,350.1742858886719000,761.5598144531250000,4.8816761970520020,34.0993804931640600,16,3,50,105,64,2147241375,2147561453,2147569755,2147361256,2474,0,-12,18953
1341896984,6468,182.7700042724609400,4.9089999198913570,34.9860000610351560,350.2571105957031000,761.5637207031250000,4.8815398216247560,34.0967102050781250,16,3,49,103,64,2147245242,2147557577,2147570116,2147362266,2290,0,-12,15606
1341897046,6469,179.9199981689453000,4.9089999198913570,34.9858016967773440,350.1517028808594000,761.5676269531250000,4.8814010620117190,34.1004600524902340,16,3,48,106,64,2147247277,2147559606,2147568868,2147361723,2119,0,-12,6265
1341897110,6467,177.0299987792968800,4.9088001251220700,34.9861984252929700,350.2025146484375000,761.5695800781250000,4.8813319206237790,34.0988388061523440,16,3,48,106,64,2147242367,2147561389,2147570888,2147361636,1894,0,-12,6244
1341897171,6466,174.2799987792968800,4.9089999198913570,34.9859008789062500,350.0591125488281000,761.5662231445312000,4.8814492225646970,34.1035003662109400,16,3,50,111,64,2147243391,2147560977,2147570682,2147362203,1668,0,-12,3217
1341897235,6447,171.4700012207031200,4.9088997840881350,34.9860000610351560,350.0245056152344000,761.5670166015625000,4.8814239501953125,34.1045799255371100,16,3,50,110,64,2147242956,2147561032,2147568196,2147364204,1450,0,-12,41749
1341897296,6468,168.8000030517578000,4.9088997840881350,34.9859008789062500,350.0450134277344000,761.5703735351562000,4.8813037872314450,34.1041412353515600,16,3,50,108,64,2147243318,2147559730,2147570138,2147358843,1212,0,-12,6485
1341897360,6468,165.9700012207031200,4.9082999229431150,34.9864006042480500,349.9122009277344000,761.5720825195312000,4.8812432289123535,34.1086196899414060,16,3,49,110,63,2147242962,2147558819,2147570147,2147361440,961,0,-12,31251
1341897421,6468,163.2599945068359400,4.9085998535156250,34.9860000610351560,349.9515075683594000,761.5720214843750000,4.8812470436096190,34.1071891784668000,16,3,49,111,64,2147243364,2147562948,2147570701,2147360013,789,0,-12,48742
1341897485,6467,160.4100036621093800,4.9088997840881350,34.9855995178222660,349.8736877441406000,761.5756835937500000,4.8811149597167970,34.1098594665527340,16,3,50,111,65,2147244712,2147557960,2147570934,2147362267,511,0,-12,32829
1341897546,6466,157.6900024414062500,4.9085998535156250,34.9858016967773440,349.9702148437500000,761.5798950195312000,4.8809719085693360,34.1067810058593750,16,3,49,113,63,2147243862,2147557814,2147569649,2147362719,232,0,-12,26950
1341897610,6466,154.8500061035156200,4.9081001281738280,34.9861984252929700,349.7869873046875000,761.5825805664062000,4.8808751106262210,34.1131210327148440,16,3,50,111,64,2147243377,2147559423,2147571081,2147361023,3486,0,-12,1680
1341897672,6468,152.0899963378906200,4.9084000587463380,34.9855995178222660,349.8272094726562500,761.5844726562500000,4.8808078765869140,34.1116905212402340,16,3,50,108,64,2147244703,2147556621,2147572978,2147363437,3181,0,-12,57802
1341897736,6469,149.2799987792968800,4.9078998565673830,34.9861984252929700,349.9686889648437500,761.5891723632812000,4.8806438446044920,34.1071701049804700,16,3,50,113,64,2147243021,2147557142,2147574198,2147362806,2916,0,-12,18686
1341897797,6503,146.5899963378906200,4.9081001281738280,34.9859008789062500,350.0794982910156000,761.5866088867188000,4.8807368278503420,34.1033401489257800,16,3,48,111,63,2147244713,2147556027,2147573192,2147363574,2680,0,-12,7649
1341897861,6467,143.8099975585937500,4.9077000617980960,34.9863014221191400,349.8855895996094000,761.5833129882812000,4.8808522224426270,34.1095809936523440,16,3,49,119,65,2147244667,2147557128,2147571340,2147364200,2502,0,-12,21801
1341897922,6468,141.1900024414062500,4.9081997871398930,34.9864006042480500,349.8540954589844000,761.5737304687500000,4.8811860084533690,34.1106109619140600,16,3,50,129,64,2147244754,2147559821,2147574669,2147359899,2307,0,-11,56762
1341897986,6467,138.5500030517578000,4.9084000587463380,34.9860000610351560,349.6899108886719000,761.5697021484375000,4.8813290596008300,34.1159706115722660,16,3,50,114,64,2147244721,2147559615,2147573979,2147366184,2153,0,-12,57957
1341898047,6466,136.0399932861328000,4.9085001945495605,34.9861984252929700,349.7388916015625000,761.5551757812500000,4.8818340301513670,34.1141891479492200,16,3,48,112,64,2147244571,2147561266,2147575807,2147360612,1911,0,-12,11743
1341898111,6503,133.4600067138672000,4.9091000556945800,34.9860992431640600,349.6588134765625000,761.5559082031250000,4.8818111419677730,34.1168098449707000,58,3,50,113,64,2147245708,2147560054,2147576283,2147361709,1772,0,-12,7804
1341898172,6467,131.0599975585937500,4.9098000526428220,34.9860992431640600,349.6333007812500000,761.5335083007812000,4.8825950622558590,34.1172599792480500,39,3,50,118,64,2147243232,2147559990,2147579496,2147361782,1557,0,-12,39767
1341898261,6469,126.8899993896484400,4.9105000495910645,34.9856986999511700,349.2431030273437500,761.5333862304688000,4.8825988769531250,34.1303100585937500,53,3,49,119,64,2147243546,2147561247,2147580447,2147362866,1255,0,-12,35731
1341898323,6467,123.1299972534179700,4.9102001190185550,34.9858016967773440,349.4428100585937500,761.5379028320312000,4.8824410438537600,34.1238517761230500,16,3,50,117,65,2147245923,2147562509,2147583711,2147362431,1005,0,-12,5081
1341898387,6468,119.2399978637695300,4.9116001129150390,34.9854011535644500,349.4003906250000000,761.5059204101562000,4.8835601806640625,34.1243896484375000,16,3,50,116,63,2147248122,2147559218,2147583835,2147361467,633,0,-12,54797
1341898448,6467,115.5400009155273400,4.9127001762390140,34.9850997924804700,349.3095092773437500,761.4774780273438000,4.8845539093017580,34.1271286010742200,41,3,50,124,64,2147246760,2147559606,2147586449,2147363940,326,0,-12,48571
1341898537,6469,110.7500000000000000,4.9140000343322750,34.9852981567382800,349.4525146484375000,761.4334716796875000,4.8860950469970700,34.1214904785156250,16,3,50,125,64,2147247309,2147561508,2147588936,2147364799,3370,0,-12,20457
1341898598,6468,108.3099975585937500,4.9161000251770020,34.9852981567382800,349.3483886718750000,761.3657836914062000,4.8884677886962890,34.1235198974609400,16,3,50,118,64,2147244036,2147562267,2147593297,2147364667,3429,0,-12,24489
1341898662,6467,105.9400024414062500,4.9183998107910160,34.9854011535644500,349.1563110351562500,761.2879028320312000,4.8911929130554200,34.1286506652832000,16,3,50,118,64,2147243775,2147560575,2147595459,2147363921,3206,0,-12,30945
1341898723,6468,103.6800003051757800,4.9198999404907230,34.9854011535644500,349.1445922851562500,761.2473754882812000,4.8926119804382320,34.1279106140136700,24,3,50,120,64,2147247656,2147561472,2147593846,2147362459,2957,0,-12,31035
1341898812,6468,99.7699966430664000,4.9240999221801760,34.9850997924804700,349.0614013671875000,761.0982055664062000,4.8978347778320310,34.1280212402343750,11,3,50,135,64,2147244891,2147562006,2147599515,2147366207,2595,0,-12,55595
1341898873,6466,96.1999969482421900,4.9291000366210940,34.9850006103515600,349.0195922851562500,761.0070800781250000,4.9010219573974610,34.1273689270019500,17,3,50,126,64,2147242623,2147563121,2147602916,2147367108,2263,0,-12,48572
1341898937,6466,92.4100036621093800,4.9299998283386230,34.9845008850097660,349.2102966308594000,760.9802246093750000,4.9019680023193360,34.1206893920898440,16,3,50,124,64,2147246331,2147563570,2147607944,2147367688,2030,0,-12,841
1341898999,6504,88.7600021362304700,4.9313998222351070,34.9847984313964840,349.2879943847656000,760.9279785156250000,4.9037928581237790,34.1170082092285160,16,3,50,127,65,2147244141,2147565608,2147612735,2147368228,1847,0,-12,43159
1341899063,6466,85.0199966430664000,4.9337000846862790,34.9844017028808600,349.2785949707031000,760.8610839843750000,4.9061341285705570,34.1159706115722660,16,3,50,127,65,2147244589,2147568831,2147624890,2147369923,1661,0,-12,5118
1341899124,6467,81.4800033569336000,4.9411001205444340,34.9846992492675800,349.3493041992187500,760.6674194335938000,4.9129118919372560,34.1097183227539060,16,3,51,125,64,2147249293,2147570358,2147633187,2147371752,1535,0,-12,8176
1341899188,6468,77.8300018310546900,4.9457001686096190,34.9846000671386700,349.0432128906250000,760.4990844726562000,4.9188060760498050,34.1166305541992200,13,3,50,128,66,2147249129,2147571734,2147645888,2147373481,1281,0,-12,24091
1341899249,6468,74.3399963378906200,4.9798002243041990,34.9846000671386700,348.6442871093750000,759.3635253906250000,4.9585361480712890,34.1077919006347660,16,3,54,127,64,2147247455,2147575807,2147659844,2147377659,941,0,-12,28789
1341899313,6466,70.6399993896484400,5.0276999473571780,34.9851989746093750,348.2402038574219000,758.2620239257812000,4.9970588684082030,34.0995597839355500,16,3,58,131,65,2147249992,2147582125,2147671971,2147380346,772,0,-12,34109
1341899374,6468,67.1900024414062500,5.0494999885559080,34.9858016967773440,348.1957092285156000,757.6149291992188000,5.0196781158447270,34.0883483886718750,16,3,61,134,64,2147249554,2147584781,2147687771,2147384347,638,0,-12,58271
1341899438,6467,63.6399993896484400,5.0651001930236820,34.9863014221191400,348.1619873046875000,757.0556030273438000,5.0392279624938965,34.0783996582031250,14,3,64,149,66,2147253475,2147591332,2147708859,2147389718,40,0,-12,20331
1341899499,6467,60.2700004577636700,5.1710000038146970,34.9879989624023440,347.7876892089844000,754.3731079101562000,5.1329140663146970,34.0386886596679700,16,3,76,142,66,2147252118,2147598080,2147730522,2147395469,3221,0,-12,63846
1341899563,6466,56.8100013732910160,5.1894998550415040,34.9897003173828100,348.0011901855469000,753.6408081054688000,5.1584677696228030,34.0166511535644500,15,3,79,142,64,2147254811,2147603318,2147752607,2147402417,2817,0,-11,2754
1341899625,6468,53.4099998474121100,5.2196998596191410,34.9903984069824200,348.0466918945312500,752.6533813476562000,5.1929187774658200,33.9959907531738300,17,3,82,146,66,2147256489,2147613490,2147779011,2147411391,2272,0,-12,30826
1341899689,6467,49.8100013732910160,5.3049998283386230,34.9931983947753900,348.0285034179687500,750.4265136718750000,5.2705550193786620,33.9533081054687500,16,3,86,146,66,2147265238,2147624191,2147810998,2147423391,1991,0,-12,17459
1341899750,6469,46.2799987792968750,5.3593997955322270,34.9967002868652340,348.4211120605469000,748.8577880859375000,5.3251991271972660,33.9093017578125000,15,3,75,149,64,2147271318,2147648150,2147868374,2147440909,1589,0,-12,43722
1341899814,6467,42.3400001525878900,5.4836997985839840,34.9986991882324200,349.0123901367187500,745.8845214843750000,5.4286770820617680,33.8317108154296900,17,3,86,151,66,2147289151,2147674966,2147949114,2147469563,1138,0,-12,25582
1341899875,6467,38.4900016784668000,5.6266999244689940,35.0093002319335940,348.7564086914062500,741.3823242187500000,5.5851140022277830,33.7534294128418000,15,3,85,154,66,2147314756,2147720077,2148061545,2147513718,926,0,-11,52138
1341899964,6468,33.1399993896484400,5.6880998611450195,35.0119018554687500,349.9201049804687500,739.4758911132812000,5.6512660980224610,33.6778106689453100,59,3,107,152,64,2147388826,2147836653,2148320160,2147609004,153,0,-12,6331
1341900025,6469,30.2000007629394530,5.7090001106262210,35.0024986267089840,351.1283874511719000,738.6970214843750000,5.6782798767089840,33.6225318908691400,26,3,166,210,64,2147453494,2147935962,2148528790,2147688310,43,0,-12,48890
1341900089,6468,27.5100002288818360,5.7555999755859375,35.0024986267089840,352.4670104980469000,737.7636108398438000,5.7106380462646480,33.5600509643554700,26,3,188,227,66,2147547954,2148082253,2148797412,2147798989,2895,0,-10,42705
1341900150,6469,25.3400001525878900,5.8585000038146970,35.0023994445800800,353.0838928222656000,735.3947753906250000,5.7927060127258300,33.4944610595703100,29,3,222,257,64,2147645997,2148208854,2149023862,2147893193,2814,0,-10,9901
1341900238,6469,22.5499992370605470,6.0166001319885250,35.0056991577148440,354.1578979492187500,729.4918823242188000,5.9968590736389160,33.3474693298339840,38,3,279,325,66,2147849161,2148437274,2149397069,2148071080,2254,0,-11,9272
1341900300,6469,20.3899993896484380,6.5303997993469240,35.0029983520507800,356.8319091796875000,716.6823120117188000,6.4381961822509770,33.0214805603027340,82,3,579,613,64,2148102751,2148729791,2149855058,2148273919,1925,0,-11,31988
1341900392,6469,17.6200008392334000,7.4106001853942870,34.9996986389160160,365.4663085937500000,691.1135864257812000,7.3124079704284670,32.2837409973144500,105,3,698,720,66,2148825042,2149526454,2150998299,2148788027,1298,0,-12,7706
1341900453,6470,15.6599998474121100,8.8357000350952150,35.0009994506835940,367.2088928222656000,649.9667968750000000,8.7014904022216800,31.5223407745361330,95,3,795,690,63,2149555505,2150327524,2152035049,2149260914,753,0,-10,41115
1341900533,6469,13.3299999237060550,9.9247999191284180,35.0237007141113300,368.1770935058594000,616.3707275390625000,9.8206157684326170,30.9427795410156250,90,3,829,651,64,2151206911,2152163588,2154300986,2150328077,2403,0,-12,59797
1341900607,6469,9.6000003814697270,10.6687002182006840,35.0312995910644500,364.0256042480469000,589.8897705078125000,10.6939496994018550,30.6512107849121100,84,3,790,567,64,2154856150,2156149585,2158774234,2152656466,2282,-2,-11,33706
1341900671,6471,6.9000000953674320,11.1180000305175780,35.0484008789062500,358.9124145507812500,577.7260131835938000,11.0926799774169920,30.6204490661621100,83,3,675,506,61,2158317425,2159831830,2162589960,2154915396,2328,-12,-5,43165
1341900732,6470,5.3299999237060550,11.1223001480102540,35.0531005859375000,357.0596923828125000,577.0521240234375000,11.1147298812866210,30.6674308776855470,77,3,647,534,62,2161273362,2162929640,2165499295,2156946477,2932,2,-13,21634
1341900813,6469,3.3399999141693115,0.0000000000000000,0.0000000000000000,356.8293151855469000,576.9033203125000000,11.1196002960205080,30.6724796295166000,87,3,622,528,61,2167478029,2169557763,2171858358,2162188571,2745,1,-8,4172
1341900847,6470,1.8099999427795410,0.0000000000000000,0.0000000000000000,356.9411926269531000,576.9343872070312000,11.1185798645019530,30.6694602966308600,170,3,601,493,60,2172781526,2174732433,2175819432,2167312941,2966,-19,-19,31735
